Flag for Germany Weather past 2 weeks in Leipzig, Saxony, Germany

Now
79 °F

Sunny.


Feels Like: 79 °F
Forecast: 63 / 86 °F
Wind: 9 mph from East

Location: Leipzig-Schkeuditz

Current Time: Jul 1, 2015 at 9:30:58 PM

Latest Report: Jul 1, 2015 at 8:50 PM


Visibility: 10 mi

Pressure: 30.15 "Hg

Humidity: 34%

Dew point: 48 °F

Location of LeipzigLocation

Historic Weather in Leipzig — Graph

°F

Leipzig temperature yesterday

Maximum temperature yesterday: 79 °F (at 3:50 PM)
Minimum temperature yesterday: 59 °F (at 5:20 AM)
Average temperature yesterday: 69 °F

Past Weeks' High & Low Weather Summary

 TemperatureHumidityPressure
High82 °F (Jul 1, 2:50 PM)100% (Jun 18, 5:20 AM)30.27 "Hg (Jun 18, 5:20 AM)
Low43 °F (Jun 17, 4:20 AM)26% (Jul 1, 5:50 PM)29.62 "Hg (Jun 23, 1:50 AM)
Average61 °F69%30.05 "Hg
* Reported Jun 16 8:20 PM — Jul 1 8:20 PM, Leipzig, Weather by CustomWeather, © 2015

Note: Actual official high and low records may vary slightly from our data, if they occured in-between our weather recording intervals... More about our weather records

Advertising

Leipzig weather history for previous 24 hours

 ConditionsComfort  
Time TempWeatherWind HumidityBarometerVisibility
8:20 PM
Wed, Jul 1
79 °FSunny.9 mph34%30.15 "Hg10 mi
7:50 PM81 °FSunny.10 mph30%30.15 "Hg10 mi
7:20 PM82 °FSunny.9 mph28%30.15 "Hg10 mi
6:50 PM82 °FSunny.10 mph28%30.15 "Hg10 mi
6:20 PM82 °FSunny.9 mph28%30.15 "Hg10 mi
5:50 PM82 °FPassing clouds.9 mph26%30.15 "HgN/A
5:20 PM82 °FSunny.10 mph28%30.15 "Hg10 mi
4:50 PM82 °FSunny.10 mph28%30.18 "Hg10 mi
4:20 PM82 °FSunny.10 mph30%30.18 "Hg10 mi
3:50 PM82 °FSunny.9 mph28%30.18 "Hg10 mi
3:20 PM82 °FSunny.10 mph30%30.18 "Hg10 mi
2:50 PM82 °FPassing clouds.8 mph30%30.18 "HgN/A
2:20 PM81 °FSunny.10 mph32%30.18 "Hg10 mi
1:50 PM81 °FSunny.10 mph34%30.18 "Hg10 mi
1:20 PM81 °FPassing clouds.9 mph34%30.21 "HgN/A
12:50 PM79 °FSunny.9 mph37%30.21 "Hg10 mi
12:20 PM77 °FSunny.12 mph39%30.21 "Hg10 mi
11:50 AM77 °FSunny.12 mph36%30.21 "Hg10 mi
11:20 AM77 °FSunny.10 mph39%30.21 "Hg10 mi
10:50 AM75 °FSunny.10 mph44%30.21 "Hg10 mi
10:20 AM75 °FSunny.9 mph44%30.21 "Hg10 mi
9:50 AM72 °FSunny.9 mph53%30.21 "Hg10 mi
9:20 AM70 °FSunny.8 mph57%30.21 "Hg10 mi
8:50 AM68 °FSunny.8 mph60%30.21 "Hg10 mi
8:20 AM66 °FSunny.8 mph60%30.21 "Hg10 mi
7:50 AM64 °FSunny.8 mph68%30.21 "Hg10 mi
7:20 AM63 °FSunny.9 mph73%30.21 "Hg10 mi
6:50 AM61 °FSunny.8 mph72%30.21 "Hg10 mi
6:20 AM59 °FSunny.5 mph72%30.21 "Hg10 mi
5:50 AM57 °FClear.8 mph77%30.21 "Hg10 mi
5:20 AM57 °FClear.9 mph77%30.21 "Hg10 mi
4:50 AM57 °FClear.7 mph77%30.18 "Hg10 mi
4:20 AM59 °FClear.8 mph72%30.18 "Hg10 mi
3:50 AM59 °FClear.8 mph72%30.18 "Hg10 mi
3:20 AM61 °FClear.7 mph68%30.18 "Hg10 mi
2:50 AM63 °FClear.8 mph64%30.18 "Hg10 mi
2:20 AM61 °FClear.7 mph63%30.18 "Hg10 mi
1:50 AM63 °FClear.6 mph59%30.18 "Hg10 mi
1:20 AM64 °FClear.7 mph56%30.18 "Hg10 mi
12:50 AM64 °FClear.6 mph56%30.18 "Hg10 mi
12:20 AM66 °FClear.7 mph52%30.18 "Hg10 mi
11:50 PM
Tue, Jun 30
64 °FClear.6 mph56%30.18 "Hg10 mi
11:20 PM66 °FClear.6 mph52%30.18 "Hg10 mi
10:50 PM66 °FClear.5 mph52%30.18 "Hg10 mi
10:20 PM68 °FSunny.6 mph49%30.18 "Hg10 mi
9:50 PM72 °FSunny.5 mph41%30.18 "Hg10 mi
9:20 PM72 °FSunny.5 mph38%30.15 "Hg10 mi
Weather by CustomWeather, © 2015

See weather overviewHow to use our weather pages